| time (UTC) | temp F | wind direction | speed knots | gust knots | rain 1hr in | rain 24hr in | rain mn in | humidity % | barometer mb |
| 20260905214555 | 101 | 199 | 3.5 | 8.7 | 0.00 | 0.00 | 0.00 | 29 | 1009.6 |
| 20260905214023 | 101 | 205 | 2.6 | 8.7 | 0.00 | 0.00 | 0.00 | 30 | 1009.7 |
| 20260905213528 | 100 | 329 | 2.6 | 7.0 | 0.00 | 0.00 | 0.00 | 30 | 1009.8 |
| 20260905213058 | 100 | 169 | 1.7 | 7.0 | 0.00 | 0.00 | 0.00 | 30 | 1009.8 |
| 20260905212525 | 101 | 342 | 1.7 | 7.0 | 0.00 | 0.00 | 0.00 | 30 | 1009.9 |
| 20260905212025 | 100 | 313 | 1.7 | 7.8 | 0.00 | 0.00 | 0.00 | 31 | 1009.9 |
| 20260905211548 | 99 | 316 | 1.7 | 7.8 | 0.00 | 0.00 | 0.00 | 30 | 1009.9 |
| 20260905211026 | 99 | 54 | 0.9 | 3.5 | 0.00 | 0.00 | 0.00 | 31 | 1010.0 |
| 20260905210526 | 99 | 17 | 1.7 | 3.5 | 0.00 | 0.00 | 0.00 | 30 | 1010.2 |
| 20260905210051 | 99 | 0 | 0.0 | 2.6 | 0.00 | 0.00 | 0.00 | 31 | 1010.3 |
| 20260905205524 | 99 | 0 | 0.0 | 4.3 | 0.00 | 0.00 | 0.00 | 30 | 1010.3 |
| 20260905205026 | 99 | 0 | 0.9 | 5.2 | 0.00 | 0.00 | 0.00 | 30 | 1010.4 |
| 20260905204549 | 100 | 213 | 1.7 | 5.2 | 0.00 | 0.00 | 0.00 | 30 | 1010.5 |
| 20260905204024 | 100 | 0 | 0.0 | 4.3 | 0.00 | 0.00 | 0.00 | 29 | 1010.6 |
| 20260905203524 | 100 | 0 | 0.0 | 7.0 | 0.00 | 0.00 | 0.00 | 30 | 1010.7 |
| 20260905203048 | 99 | 197 | 1.7 | 7.0 | 0.00 | 0.00 | 0.00 | 30 | 1010.8 |
| 20260905202524 | 100 | 229 | 1.7 | 7.8 | 0.00 | 0.00 | 0.00 | 30 | 1010.9 |
| 20260905202025 | 100 | 246 | 1.7 | 9.6 | 0.00 | 0.00 | 0.00 | 30 | 1010.9 |
| 20260905201601 | 100 | 247 | 3.5 | 9.6 | 0.00 | 0.00 | 0.00 | 29 | 1011.1 |
| 20260905201024 | 101 | 334 | 1.7 | 6.1 | 0.00 | 0.00 | 0.00 | 29 | 1011.1 |
| 20260905200524 | 101 | 0 | 1.7 | 7.8 | 0.00 | 0.00 | 0.00 | 29 | 1011.1 |
| 20260905200047 | 101 | 240 | 1.7 | 7.8 | 0.00 | 0.00 | 0.00 | 29 | 1011.1 |
| 20260905195527 | 101 | 260 | 1.7 | 7.8 | 0.00 | 0.00 | 0.00 | 29 | 1011.2 |
| 20260905195024 | 100 | 265 | 0.9 | 3.5 | 0.00 | 0.00 | 0.00 | 30 | 1011.2 |
| 20260905194551 | 99 | 145 | 0.9 | 7.0 | 0.00 | 0.00 | 0.00 | 30 | 1011.1 |
| 20260905194025 | 99 | 325 | 1.7 | 7.0 | 0.00 | 0.00 | 0.00 | 30 | 1011.2 |
| 20260905193524 | 99 | 294 | 2.6 | 8.7 | 0.00 | 0.00 | 0.00 | 30 | 1011.4 |
| 20260905193101 | 98 | 211 | 1.7 | 8.7 | 0.00 | 0.00 | 0.00 | 31 | 1011.5 |
| 20260905192524 | 98 | 47 | 0.9 | 6.1 | 0.00 | 0.00 | 0.00 | 30 | 1011.6 |
| 20260905192025 | 98 | 303 | 1.7 | 6.1 | 0.00 | 0.00 | 0.00 | 30 | 1011.7 |
| 20260905191546 | 99 | 261 | 0.9 | 6.1 | 0.00 | 0.00 | 0.00 | 30 | 1011.6 |
| 20260905191026 | 99 | 251 | 1.7 | 6.1 | 0.00 | 0.00 | 0.00 | 29 | 1011.8 |
| 20260905190525 | 99 | 301 | 0.9 | 7.0 | 0.00 | 0.00 | 0.00 | 29 | 1011.8 |
| 20260905190047 | 99 | 259 | 1.7 | 7.0 | 0.00 | 0.00 | 0.00 | 29 | 1012.0 |
| 20260905185526 | 98 | 267 | 0.9 | 7.8 | 0.00 | 0.00 | 0.00 | 29 | 1012.1 |
| 20260905185024 | 99 | 251 | 2.6 | 7.8 | 0.00 | 0.00 | 0.00 | 29 | 1012.1 |
| 20260905184556 | 100 | 0 | 1.7 | 6.1 | 0.00 | 0.00 | 0.00 | 28 | 1012.2 |
| 20260905184024 | 100 | 250 | 0.0 | 7.8 | 0.00 | 0.00 | 0.00 | 28 | 1012.2 |
| 20260905183527 | 99 | 131 | 1.7 | 7.8 | 0.00 | 0.00 | 0.00 | 29 | 1012.3 |
| 20260905183048 | 99 | 190 | 0.9 | 7.0 | 0.00 | 0.00 | 0.00 | 29 | 1012.3 |
| 20260905182531 | 99 | 231 | 2.6 | 6.1 | 0.00 | 0.00 | 0.00 | 29 | 1012.4 |
| 20260905182026 | 99 | 271 | 0.9 | 6.1 | 0.00 | 0.00 | 0.00 | 28 | 1012.4 |
| 20260905181608 | 100 | 192 | 1.7 | 5.2 | 0.00 | 0.00 | 0.00 | 28 | 1012.5 |
| 20260905181027 | 100 | 173 | 0.9 | 7.0 | 0.00 | 0.00 | 0.00 | 29 | 1012.5 |
| 20260905180522 | 99 | 188 | 1.7 | 7.0 | 0.00 | 0.00 | 0.00 | 29 | 1012.7 |
| 20260905180055 | 99 | 282 | 0.9 | 7.0 | 0.00 | 0.00 | 0.00 | 29 | 1012.6 |
| 20260905175525 | 98 | 190 | 1.7 | 7.8 | 0.00 | 0.00 | 0.00 | 29 | 1012.7 |
| 20260905175024 | 98 | 152 | 1.7 | 7.8 | 0.00 | 0.00 | 0.00 | 30 | 1012.5 |
| 20260905174554 | 98 | 130 | 0.0 | 4.3 | 0.00 | 0.00 | 0.00 | 31 | 1012.5 |
| 20260905174027 | 98 | 128 | 0.0 | 4.3 | 0.00 | 0.00 | 0.00 | 30 | 1012.7 |
| 20260905173525 | 98 | 102 | 0.0 | 4.3 | 0.00 | 0.00 | 0.00 | 31 | 1012.6 |
| 20260905173042 | 97 | 192 | 0.9 | 5.2 | 0.00 | 0.00 | 0.00 | 31 | 1012.6 |
| 20260905172523 | 96 | 123 | 1.7 | 5.2 | 0.00 | 0.00 | 0.00 | 32 | 1012.5 |
| 20260905172027 | 96 | 5 | 0.9 | 4.3 | 0.00 | 0.00 | 0.00 | 32 | 1012.5 |
| 20260905171550 | 96 | 71 | 0.0 | 6.1 | 0.00 | 0.00 | 0.00 | 31 | 1012.6 |
| 20260905171023 | 97 | 77 | 1.7 | 6.1 | 0.00 | 0.00 | 0.00 | 31 | 1012.7 |
| 20260905170523 | 96 | 0 | 0.0 | 4.3 | 0.00 | 0.00 | 0.00 | 32 | 1012.6 |
| 20260905170047 | 96 | 360 | 0.9 | 4.3 | 0.00 | 0.00 | 0.00 | 32 | 1012.7 |
| 20260905165525 | 96 | 101 | 0.9 | 4.3 | 0.00 | 0.00 | 0.00 | 31 | 1012.7 |
| 20260905165028 | 95 | 156 | 0.9 | 3.5 | 0.00 | 0.00 | 0.00 | 33 | 1012.7 |
| 20260905164546 | 95 | 0 | 0.9 | 3.5 | 0.00 | 0.00 | 0.00 | 33 | 1012.7 |
| 20260905164025 | 95 | 184 | 0.9 | 3.5 | 0.00 | 0.00 | 0.00 | 34 | 1012.7 |
| 20260905163525 | 94 | 58 | 0.9 | 3.5 | 0.00 | 0.00 | 0.00 | 35 | 1012.6 |
| 20260905163054 | 94 | 329 | 0.0 | 3.5 | 0.00 | 0.00 | 0.00 | 35 | 1012.6 |
| 20260905162526 | 94 | 35 | 0.9 | 3.5 | 0.00 | 0.00 | 0.00 | 35 | 1012.7 |
| 20260905162029 | 93 | 199 | 0.0 | 4.3 | 0.00 | 0.00 | 0.00 | 36 | 1012.7 |
| 20260905161559 | 93 | 170 | 1.7 | 4.3 | 0.00 | 0.00 | 0.00 | 37 | 1012.7 |
| 20260905161025 | 93 | 319 | 0.0 | 3.5 | 0.00 | 0.00 | 0.00 | 37 | 1012.9 |
| 20260905160525 | 93 | 0 | 0.9 | 3.5 | 0.00 | 0.00 | 0.00 | 37 | 1012.8 |
| 20260905160048 | 92 | 250 | 0.0 | 4.3 | 0.00 | 0.00 | 0.00 | 37 | 1012.7 |
| 20260905155526 | 92 | 152 | 0.9 | 4.3 | 0.00 | 0.00 | 0.00 | 38 | 1012.6 |
| 20260905155023 | 91 | 136 | 0.0 | 4.3 | 0.00 | 0.00 | 0.00 | 40 | 1012.4 |
| 20260905154608 | 90 | 175 | 0.9 | 4.3 | 0.00 | 0.00 | 0.00 | 41 | 1012.4 |
| 20260905154023 | 90 | 155 | 0.9 | 4.3 | 0.00 | 0.00 | 0.00 | 43 | 1012.5 |
| 20260905153524 | 89 | 0 | 1.7 | 4.3 | 0.00 | 0.00 | 0.00 | 42 | 1012.4 |
| 20260905153050 | 89 | 148 | 0.9 | 2.6 | 0.00 | 0.00 | 0.00 | 45 | 1012.3 |
| 20260905152525 | 89 | 148 | 0.0 | 4.3 | 0.00 | 0.00 | 0.00 | 46 | 1012.3 |
| 20260905152025 | 89 | 0 | 0.9 | 4.3 | 0.00 | 0.00 | 0.00 | 46 | 1012.3 |
| 20260905151550 | 88 | 152 | 0.9 | 3.5 | 0.00 | 0.00 | 0.00 | 47 | 1012.3 |
| 20260905151029 | 88 | 165 | 0.0 | 4.3 | 0.00 | 0.00 | 0.00 | 46 | 1012.3 |
| 20260905150528 | 87 | 172 | 0.9 | 4.3 | 0.00 | 0.00 | 0.00 | 47 | 1012.2 |
| 20260905150045 | 86 | 150 | 0.9 | 4.3 | 0.00 | 0.00 | 0.00 | 49 | 1012.2 |
| 20260905145524 | 86 | 150 | 0.9 | 4.3 | 0.00 | 0.00 | 0.00 | 49 | 1012.2 |
| 20260905145023 | 85 | 65 | 0.9 | 2.6 | 0.00 | 0.00 | 0.00 | 51 | 1012.1 |
| 20260905144550 | 84 | 142 | 0.9 | 3.5 | 0.00 | 0.00 | 0.00 | 52 | 1012.2 |
| 20260905144032 | 84 | 142 | 0.9 | 3.5 | 0.00 | 0.00 | 0.00 | 52 | 1012.1 |
| 20260905143524 | 84 | 142 | 0.0 | 3.5 | 0.00 | 0.00 | 0.00 | 52 | 1012.1 |
| 20260905143047 | 84 | 142 | 0.9 | 3.5 | 0.00 | 0.00 | 0.00 | 52 | 1012.1 |
| 20260905142524 | 84 | 128 | 0.9 | 3.5 | 0.00 | 0.00 | 0.00 | 52 | 1012.1 |
| 20260905142023 | 83 | 192 | 0.0 | 3.5 | 0.00 | 0.00 | 0.00 | 54 | 1012.1 |
| 20260905141555 | 82 | 98 | 0.9 | 5.2 | 0.00 | 0.00 | 0.00 | 55 | 1012.1 |
| 20260905141029 | 82 | 139 | 1.7 | 5.2 | 0.00 | 0.00 | 0.00 | 55 | 1012.0 |
| 20260905140523 | 81 | 143 | 0.9 | 4.3 | 0.00 | 0.00 | 0.00 | 56 | 1011.9 |
| 20260905140050 | 81 | 146 | 0.9 | 4.3 | 0.00 | 0.00 | 0.00 | 56 | 1011.9 |
| 20260905135525 | 81 | 149 | 1.7 | 4.3 | 0.00 | 0.00 | 0.00 | 57 | 1011.9 |
| 20260905135025 | 81 | 149 | 0.9 | 4.3 | 0.00 | 0.00 | 0.00 | 56 | 1011.9 |
| 20260905134548 | 81 | 149 | 0.9 | 2.6 | 0.00 | 0.00 | 0.00 | 56 | 1011.8 |
| 20260905134025 | 81 | 95 | 0.9 | 2.6 | 0.00 | 0.00 | 0.00 | 57 | 1011.7 |
| 20260905133524 | 80 | 95 | 0.9 | 2.6 | 0.00 | 0.00 | 0.00 | 57 | 1011.6 |
| 20260905133052 | 80 | 95 | 0.9 | 2.6 | 0.00 | 0.00 | 0.00 | 57 | 1011.5 |
| 20260905132523 | 80 | 95 | 0.9 | 1.7 | 0.00 | 0.00 | 0.00 | 56 | 1011.4 |
| 20260905132025 | 80 | 95 | 0.0 | 1.7 | 0.00 | 0.00 | 0.00 | 56 | 1011.3 |
| 20260905131608 | 80 | 95 | 0.0 | 1.7 | 0.00 | 0.00 | 0.00 | 56 | 1011.4 |
| 20260905131025 | 80 | 95 | 0.0 | 1.7 | 0.00 | 0.00 | 0.00 | 55 | 1011.2 |
| 20260905130527 | 80 | 95 | 0.9 | 2.6 | 0.00 | 0.00 | 0.00 | 56 | 1011.2 |
| 20260905130046 | 80 | 95 | 0.9 | 2.6 | 0.00 | 0.00 | 0.00 | 56 | 1011.2 |
| 20260905125524 | 80 | 95 | 0.9 | 2.6 | 0.00 | 0.00 | 0.00 | 56 | 1011.2 |
| 20260905125025 | 80 | 0 | 0.9 | 3.5 | 0.00 | 0.00 | 0.00 | 55 | 1011.1 |
| 20260905124545 | 80 | 95 | 0.9 | 3.5 | 0.00 | 0.00 | 0.00 | 55 | 1011.1 |
| 20260905124024 | 80 | 87 | 0.9 | 2.6 | 0.00 | 0.00 | 0.00 | 55 | 1011.1 |
| 20260905123526 | 81 | 87 | 0.9 | 2.6 | 0.00 | 0.00 | 0.00 | 55 | 1011.0 |
| 20260905123057 | 81 | 87 | 0.9 | 2.6 | 0.00 | 0.00 | 0.00 | 55 | 1011.0 |
| 20260905122525 | 81 | 0 | 0.9 | 1.7 | 0.00 | 0.00 | 0.00 | 55 | 1011.0 |
| 20260905122023 | 81 | 154 | 0.0 | 1.7 | 0.00 | 0.00 | 0.00 | 55 | 1011.0 |
| 20260905121548 | 81 | 154 | 0.9 | 1.7 | 0.00 | 0.00 | 0.00 | 54 | 1011.0 |
| 20260905121024 | 81 | 154 | 0.0 | 1.7 | 0.00 | 0.00 | 0.00 | 54 | 1011.0 |
| 20260905120525 | 81 | 154 | 0.0 | 1.7 | 0.00 | 0.00 | 0.00 | 54 | 1010.9 |
| 20260905120048 | 81 | 0 | 0.0 | 1.7 | 0.00 | 0.00 | 0.00 | 54 | 1010.8 |
| 20260905115526 | 81 | 0 | 0.0 | 1.7 | 0.00 | 0.00 | 0.00 | 54 | 1010.8 |
| 20260905115026 | 81 | 154 | 0.0 | 1.7 | 0.00 | 0.00 | 0.00 | 54 | 1010.8 |
| 20260905114544 | 81 | 0 | 0.0 | 1.7 | 0.00 | 0.00 | 0.00 | 54 | 1010.8 |
| 20260905114023 | 81 | 154 | 0.0 | 1.7 | 0.00 | 0.00 | 0.00 | 54 | 1010.8 |
| 20260905113523 | 81 | 0 | 0.0 | 2.6 | 0.00 | 0.00 | 0.00 | 53 | 1010.7 |
| 20260905113048 | 81 | 0 | 0.0 | 2.6 | 0.00 | 0.00 | 0.00 | 53 | 1010.7 |
| 20260905112527 | 82 | 0 | 0.9 | 2.6 | 0.00 | 0.00 | 0.00 | 52 | 1010.7 |
| 20260905112030 | 82 | 154 | 0.9 | 2.6 | 0.00 | 0.00 | 0.00 | 52 | 1010.7 |
| 20260905111557 | 82 | 154 | 0.9 | 2.6 | 0.00 | 0.00 | 0.00 | 51 | 1010.8 |
| 20260905111023 | 82 | 154 | 0.9 | 2.6 | 0.00 | 0.00 | 0.00 | 51 | 1010.7 |
| 20260905110525 | 82 | 154 | 0.9 | 2.6 | 0.00 | 0.00 | 0.00 | 51 | 1010.7 |
| 20260905110101 | 82 | 117 | 0.9 | 1.7 | 0.00 | 0.00 | 0.00 | 51 | 1010.6 |
| 20260905105528 | 82 | 117 | 0.9 | 1.7 | 0.00 | 0.00 | 0.00 | 51 | 1010.6 |
| 20260905105025 | 82 | 117 | 0.0 | 2.6 | 0.00 | 0.00 | 0.00 | 50 | 1010.6 |
| 20260905104610 | 82 | 0 | 0.0 | 2.6 | 0.00 | 0.00 | 0.00 | 50 | 1010.6 |
| 20260905104023 | 82 | 117 | 0.9 | 2.6 | 0.00 | 0.00 | 0.00 | 50 | 1010.5 |
| 20260905103524 | 83 | 117 | 0.0 | 1.7 | 0.00 | 0.00 | 0.00 | 50 | 1010.5 |
| 20260905103049 | 83 | 0 | 0.0 | 1.7 | 0.00 | 0.00 | 0.00 | 49 | 1010.5 |
| 20260905102525 | 83 | 117 | 0.9 | 2.6 | 0.00 | 0.00 | 0.00 | 49 | 1010.5 |
| 20260905102025 | 83 | 117 | 0.0 | 2.6 | 0.00 | 0.00 | 0.00 | 49 | 1010.5 |
| 20260905101547 | 83 | 117 | 0.9 | 2.6 | 0.00 | 0.00 | 0.00 | 48 | 1010.5 |
| 20260905101028 | 83 | 112 | 0.9 | 2.6 | 0.00 | 0.00 | 0.00 | 48 | 1010.4 |
| 20260905100526 | 84 | 0 | 0.9 | 2.6 | 0.00 | 0.00 | 0.00 | 48 | 1010.4 |
| 20260905100046 | 84 | 112 | 0.0 | 1.7 | 0.00 | 0.00 | 0.00 | 47 | 1010.4 |
| 20260905095524 | 84 | 112 | 0.0 | 1.7 | 0.00 | 0.00 | 0.00 | 47 | 1010.4 |
| 20260905095028 | 84 | 0 | 0.0 | 1.7 | 0.00 | 0.00 | 0.00 | 47 | 1010.4 |
| 20260905094544 | 84 | 0 | 0.0 | 1.7 | 0.00 | 0.00 | 0.00 | 46 | 1010.3 |
| 20260905094023 | 84 | 112 | 0.0 | 2.6 | 0.00 | 0.00 | 0.00 | 46 | 1010.4 |
| 20260905093530 | 84 | 0 | 0.0 | 2.6 | 0.00 | 0.00 | 0.00 | 45 | 1010.4 |
| 20260905093048 | 84 | 112 | 0.9 | 2.6 | 0.00 | 0.00 | 0.00 | 46 | 1010.4 |
| 20260905092525 | 84 | 112 | 0.9 | 1.7 | 0.00 | 0.00 | 0.00 | 45 | 1010.4 |
| 20260905092025 | 85 | 112 | 0.0 | 1.7 | 0.00 | 0.00 | 0.00 | 45 | 1010.4 |
| 20260905091605 | 85 | 112 | 0.0 | 1.7 | 0.00 | 0.00 | 0.00 | 45 | 1010.4 |
| 20260905091027 | 85 | 0 | 0.0 | 1.7 | 0.00 | 0.00 | 0.00 | 45 | 1010.3 |
| 20260905090524 | 85 | 112 | 0.9 | 1.7 | 0.00 | 0.00 | 0.00 | 45 | 1010.3 |
| 20260905090050 | 85 | 112 | 0.0 | 1.7 | 0.00 | 0.00 | 0.00 | 45 | 1010.4 |
| 20260905085527 | 85 | 0 | 0.0 | 1.7 | 0.00 | 0.00 | 0.00 | 44 | 1010.4 |
| 20260905085026 | 85 | 0 | 0.0 | 1.7 | 0.00 | 0.00 | 0.00 | 45 | 1010.4 |
| 20260905084606 | 85 | 112 | 0.0 | 1.7 | 0.00 | 0.00 | 0.00 | 44 | 1010.4 |
| 20260905084025 | 85 | 112 | 0.0 | 1.7 | 0.00 | 0.00 | 0.00 | 44 | 1010.4 |
| 20260905083524 | 85 | 9 | 0.0 | 1.7 | 0.00 | 0.00 | 0.00 | 44 | 1010.4 |
| 20260905083045 | 86 | 9 | 0.0 | 1.7 | 0.00 | 0.00 | 0.00 | 43 | 1010.5 |
| 20260905082524 | 86 | 0 | 0.0 | 1.7 | 0.00 | 0.00 | 0.00 | 42 | 1010.4 |
| 20260905082026 | 86 | 9 | 0.0 | 1.7 | 0.00 | 0.00 | 0.00 | 42 | 1010.4 |
| 20260905081543 | 86 | 9 | 0.0 | 1.7 | 0.00 | 0.00 | 0.00 | 42 | 1010.3 |
| 20260905081023 | 86 | 9 | 0.0 | 1.7 | 0.00 | 0.00 | 0.00 | 42 | 1010.4 |
| 20260905080524 | 86 | 0 | 0.0 | 2.6 | 0.00 | 0.00 | 0.00 | 43 | 1010.4 |
| 20260905080057 | 86 | 9 | 0.0 | 2.6 | 0.00 | 0.00 | 0.00 | 42 | 1010.4 |
| 20260905075523 | 86 | 9 | 0.9 | 2.6 | 0.00 | 0.00 | 0.00 | 42 | 1010.5 |
| 20260905075026 | 86 | 0 | 0.0 | 1.7 | 0.00 | 0.00 | 0.00 | 41 | 1010.5 |
| 20260905074553 | 86 | 207 | 0.0 | 1.7 | 0.00 | 0.00 | 0.00 | 41 | 1010.3 |
| 20260905074024 | 87 | 0 | 0.0 | 0.9 | 0.00 | 0.00 | 0.00 | 40 | 1010.4 |
| 20260905073524 | 87 | 0 | 0.0 | 2.6 | 0.00 | 0.00 | 0.00 | 40 | 1010.4 |
| 20260905073047 | 87 | 0 | 0.0 | 2.6 | 0.00 | 0.00 | 0.00 | 40 | 1010.3 |
| 20260905072524 | 87 | 0 | 0.9 | 2.6 | 0.00 | 0.00 | 0.00 | 40 | 1010.3 |
| 20260905072025 | 87 | 0 | 0.9 | 3.5 | 0.00 | 0.00 | 0.00 | 40 | 1010.3 |
| 20260905071547 | 87 | 214 | 0.9 | 3.5 | 0.00 | 0.00 | 0.00 | 40 | 1010.1 |
| 20260905071028 | 87 | 211 | 0.0 | 3.5 | 0.00 | 0.00 | 0.00 | 41 | 1010.2 |
| 20260905070523 | 87 | 0 | 0.9 | 3.5 | 0.00 | 0.00 | 0.00 | 41 | 1010.2 |
| 20260905070105 | 88 | 254 | 0.0 | 1.7 | 0.00 | 0.00 | 0.00 | 41 | 1010.2 |
| 20260905065527 | 88 | 254 | 0.0 | 1.7 | 0.00 | 0.00 | 0.00 | 40 | 1010.2 |
| 20260905065023 | 88 | 265 | 0.0 | 1.7 | 0.00 | 0.00 | 0.00 | 40 | 1010.2 |
| 20260905064550 | 88 | 0 | 0.0 | 1.7 | 0.00 | 0.00 | 0.00 | 40 | 1010.2 |
| 20260905064026 | 89 | 265 | 0.0 | 1.7 | 0.00 | 0.00 | 0.00 | 39 | 1010.1 |
| 20260905063525 | 89 | 0 | 0.0 | 1.7 | 0.00 | 0.00 | 0.00 | 39 | 1010.0 |
| 20260905063047 | 89 | 0 | 0.0 | 1.7 | 0.00 | 0.00 | 0.00 | 39 | 1010.1 |
| 20260905062527 | 89 | 254 | 0.0 | 1.7 | 0.00 | 0.00 | 0.00 | 38 | 1009.9 |
| 20260905062026 | 89 | 259 | 0.0 | 1.7 | 0.00 | 0.00 | 0.00 | 38 | 1009.9 |
| 20260905061548 | 89 | 0 | 0.0 | 1.7 | 0.00 | 0.00 | 0.00 | 38 | 1009.9 |
| 20260905061024 | 89 | 261 | 0.9 | 1.7 | 0.00 | 0.00 | 0.00 | 37 | 1009.9 |
| 20260905060525 | 90 | 0 | 0.0 | 1.7 | 0.00 | 0.00 | 0.00 | 37 | 1009.9 |
| 20260905060048 | 90 | 240 | 0.0 | 1.7 | 0.00 | 0.00 | 0.00 | 37 | 1009.8 |
| 20260905055524 | 90 | 0 | 0.0 | 1.7 | 0.00 | 0.00 | 0.00 | 36 | 1009.9 |
| 20260905055023 | 90 | 267 | 0.0 | 0.9 | 0.00 | 0.00 | 0.00 | 35 | 1009.8 |
| 20260905054558 | 91 | 267 | 0.0 | 1.7 | 0.00 | 0.00 | 0.00 | 35 | 1009.7 |
| 20260905054026 | 91 | 0 | 0.0 | 1.7 | 0.00 | 0.00 | 0.00 | 35 | 1009.7 |
| 20260905053524 | 91 | 0 | 0.0 | 1.7 | 0.00 | 0.00 | 0.00 | 35 | 1009.7 |
| 20260905053050 | 91 | 265 | 0.9 | 1.7 | 0.00 | 0.00 | 0.00 | 34 | 1009.7 |
| 20260905052525 | 91 | 260 | 0.0 | 1.7 | 0.00 | 0.00 | 0.00 | 34 | 1009.7 |
| 20260905052028 | 92 | 0 | 0.0 | 2.6 | 0.00 | 0.00 | 0.00 | 33 | 1009.6 |
| 20260905051547 | 92 | 262 | 0.9 | 2.6 | 0.00 | 0.00 | 0.00 | 33 | 1009.7 |
| 20260905051024 | 92 | 264 | 0.9 | 3.5 | 0.00 | 0.00 | 0.00 | 33 | 1009.7 |
| 20260905050524 | 92 | 0 | 0.9 | 3.5 | 0.00 | 0.00 | 0.00 | 33 | 1009.7 |
| 20260905050100 | 92 | 269 | 0.9 | 2.6 | 0.00 | 0.00 | 0.00 | 32 | 1009.6 |
| 20260905045524 | 92 | 271 | 0.9 | 2.6 | 0.00 | 0.00 | 0.00 | 32 | 1009.5 |
| 20260905045025 | 93 | 302 | 0.0 | 2.6 | 0.00 | 0.00 | 0.00 | 32 | 1009.5 |
| 20260905044554 | 93 | 246 | 0.0 | 2.6 | 0.00 | 0.00 | 0.00 | 32 | 1009.5 |
| 20260905044023 | 93 | 284 | 0.9 | 2.6 | 0.00 | 0.00 | 0.00 | 31 | 1009.5 |
| 20260905043523 | 93 | 273 | 0.9 | 5.2 | 0.00 | 0.00 | 0.00 | 31 | 1009.5 |
| 20260905043048 | 94 | 279 | 0.9 | 5.2 | 0.00 | 0.00 | 0.00 | 31 | 1009.5 |
| 20260905042525 | 94 | 274 | 0.9 | 6.1 | 0.00 | 0.00 | 0.00 | 30 | 1009.5 |
| 20260905042024 | 94 | 281 | 0.9 | 7.0 | 0.00 | 0.00 | 0.00 | 30 | 1009.5 |
| 20260905041554 | 94 | 296 | 1.7 | 7.0 | 0.00 | 0.00 | 0.00 | 30 | 1009.4 |
| 20260905041025 | 94 | 269 | 1.7 | 6.1 | 0.00 | 0.00 | 0.00 | 30 | 1009.4 |
| 20260905040525 | 95 | 288 | 1.7 | 6.1 | 0.00 | 0.00 | 0.00 | 30 | 1009.4 |
| 20260905040055 | 95 | 240 | 1.7 | 6.1 | 0.00 | 0.00 | 0.00 | 29 | 1009.2 |
| 20260905035524 | 95 | 268 | 2.6 | 7.8 | 0.00 | 0.00 | 0.00 | 29 | 1009.2 |
| 20260905035024 | 95 | 256 | 2.6 | 7.8 | 0.00 | 0.00 | 0.00 | 29 | 1009.1 |
| 20260905034548 | 95 | 288 | 2.6 | 7.8 | 0.00 | 0.00 | 0.00 | 29 | 1009.1 |
| 20260905034024 | 95 | 293 | 2.6 | 10.4 | 0.00 | 0.00 | 0.00 | 30 | 1009.0 |
| 20260905033524 | 95 | 273 | 2.6 | 10.4 | 0.00 | 0.00 | 0.00 | 30 | 1009.0 |
| 20260905033051 | 95 | 267 | 2.6 | 6.1 | 0.00 | 0.00 | 0.00 | 31 | 1008.9 |
| 20260905032525 | 96 | 215 | 0.9 | 3.5 | 0.00 | 0.00 | 0.00 | 32 | 1008.8 |
| 20260905032024 | 96 | 198 | 0.9 | 3.5 | 0.00 | 0.00 | 0.00 | 32 | 1008.8 |
| 20260905031553 | 96 | 278 | 0.0 | 0.9 | 0.00 | 0.00 | 0.00 | 33 | 1008.7 |
| 20260905031026 | 95 | 0 | 0.0 | 0.0 | 0.00 | 0.00 | 0.00 | 33 | 1008.6 |
| 20260905030523 | 96 | 0 | 0.0 | 0.0 | 0.00 | 0.00 | 0.00 | 33 | 1008.5 |
| 20260905030049 | 96 | 0 | 0.0 | 0.0 | 0.00 | 0.00 | 0.00 | 32 | 1008.4 |
| 20260905025522 | 96 | 0 | 0.0 | 0.0 | 0.00 | 0.00 | 0.00 | 32 | 1008.3 |
| 20260905025027 | 96 | 0 | 0.0 | 0.0 | 0.00 | 0.00 | 0.00 | 32 | 1008.2 |
| 20260905024547 | 96 | 0 | 0.0 | 0.0 | 0.00 | 0.00 | 0.00 | 32 | 1008.2 |
| 20260905024027 | 96 | 0 | 0.0 | 0.0 | 0.00 | 0.00 | 0.00 | 32 | 1008.3 |
| 20260905023524 | 96 | 0 | 0.0 | 0.9 | 0.00 | 0.00 | 0.00 | 32 | 1008.3 |
| 20260905023046 | 96 | 0 | 0.0 | 0.9 | 0.00 | 0.00 | 0.00 | 31 | 1008.3 |
| 20260905022528 | 96 | 0 | 0.0 | 0.9 | 0.00 | 0.00 | 0.00 | 31 | 1008.2 |
| 20260905022024 | 97 | 0 | 0.0 | 0.9 | 0.00 | 0.00 | 0.00 | 31 | 1008.1 |
| 20260905021553 | 97 | 0 | 0.0 | 0.9 | 0.00 | 0.00 | 0.00 | 30 | 1008.1 |
| 20260905021027 | 97 | 0 | 0.0 | 0.9 | 0.00 | 0.00 | 0.00 | 30 | 1008.1 |
| 20260905020523 | 97 | 0 | 0.0 | 0.9 | 0.00 | 0.00 | 0.00 | 30 | 1008.1 |
| 20260905020056 | 97 | 0 | 0.0 | 1.7 | 0.00 | 0.00 | 0.00 | 30 | 1008.0 |
| 20260905015524 | 97 | 278 | 0.0 | 2.6 | 0.00 | 0.00 | 0.00 | 30 | 1008.0 |
| 20260905015024 | 98 | 0 | 0.0 | 2.6 | 0.00 | 0.00 | 0.00 | 30 | 1007.9 |
| 20260905014547 | 98 | 284 | 0.9 | 2.6 | 0.00 | 0.00 | 0.00 | 29 | 1008.0 |
| 20260905014027 | 98 | 293 | 0.0 | 2.6 | 0.00 | 0.00 | 0.00 | 29 | 1007.9 |
| 20260905013529 | 98 | 0 | 0.9 | 3.5 | 0.00 | 0.00 | 0.00 | 29 | 1007.9 |
| 20260905013050 | 98 | 278 | 0.0 | 3.5 | 0.00 | 0.00 | 0.00 | 30 | 1007.9 |
| 20260905012527 | 98 | 306 | 0.9 | 6.1 | 0.00 | 0.00 | 0.00 | 29 | 1007.8 |
| 20260905012027 | 98 | 304 | 0.9 | 6.1 | 0.00 | 0.00 | 0.00 | 29 | 1007.8 |
| 20260905011548 | 99 | 226 | 1.7 | 7.0 | 0.00 | 0.00 | 0.00 | 29 | 1007.7 |
| 20260905011028 | 99 | 287 | 1.7 | 7.0 | 0.00 | 0.00 | 0.00 | 29 | 1007.7 |
| 20260905010526 | 99 | 293 | 1.7 | 5.2 | 0.00 | 0.00 | 0.00 | 29 | 1007.8 |
| 20260905005525 | 100 | 321 | 0.0 | 4.3 | 0.00 | 0.00 | 0.00 | 28 | 1007.8 |
| 20260905005025 | 100 | 0 | 1.7 | 4.3 | 0.00 | 0.00 | 0.00 | 28 | 1007.9 |
| 20260905004547 | 100 | 268 | 0.9 | 5.2 | 0.00 | 0.00 | 0.00 | 28 | 1007.9 |
| 20260905004026 | 100 | 169 | 1.7 | 6.1 | 0.00 | 0.00 | 0.00 | 28 | 1007.9 |
| 20260905003527 | 100 | 250 | 2.6 | 7.8 | 0.00 | 0.00 | 0.00 | 28 | 1007.8 |
| 20260905003044 | 100 | 192 | 2.6 | 7.8 | 0.00 | 0.00 | 0.00 | 27 | 1007.8 |
| 20260905002523 | 101 | 231 | 0.9 | 7.0 | 0.00 | 0.00 | 0.00 | 27 | 1007.8 |
| 20260905002027 | 101 | 276 | 1.7 | 6.1 | 0.00 | 0.00 | 0.00 | 27 | 1007.8 |
| 20260905001548 | 101 | 313 | 1.7 | 7.8 | 0.00 | 0.00 | 0.00 | 27 | 1007.7 |
| 20260905001024 | 101 | 208 | 2.6 | 7.8 | 0.00 | 0.00 | 0.00 | 27 | 1007.9 |
| 20260905000526 | 102 | 0 | 2.6 | 7.8 | 0.00 | 0.00 | 0.00 | 27 | 1007.9 |
| 20260905000048 | 101 | 0 | 0.0 | 2.6 | 0.00 | 0.00 | 0.00 | 29 | 1008.0 |
| 20260904235523 | 101 | 190 | 0.9 | 4.3 | 0.00 | 0.00 | 0.00 | 29 | 1008.0 |
| 20260904235024 | 100 | 153 | 1.7 | 7.0 | 0.00 | 0.00 | 0.00 | 29 | 1007.9 |
| 20260904234551 | 100 | 150 | 1.7 | 10.4 | 0.00 | 0.00 | 0.00 | 29 | 1007.9 |
| 20260904234024 | 101 | 93 | 4.3 | 10.4 | 0.00 | 0.00 | 0.00 | 29 | 1008.0 |
| 20260904233524 | 101 | 171 | 1.7 | 6.1 | 0.00 | 0.00 | 0.00 | 29 | 1008.0 |
| 20260904233045 | 101 | 180 | 1.7 | 6.1 | 0.00 | 0.00 | 0.00 | 29 | 1008.0 |
| 20260904232526 | 101 | 203 | 1.7 | 6.1 | 0.00 | 0.00 | 0.00 | 29 | 1007.9 |
| 20260904232026 | 101 | 144 | 0.9 | 5.2 | 0.00 | 0.00 | 0.00 | 29 | 1008.0 |
| 20260904231542 | 100 | 130 | 0.0 | 7.0 | 0.00 | 0.00 | 0.00 | 29 | 1008.0 |
| 20260904231023 | 100 | 163 | 2.6 | 7.0 | 0.00 | 0.00 | 0.00 | 30 | 1008.1 |
| 20260904230524 | 100 | 149 | 1.7 | 9.6 | 0.00 | 0.00 | 0.00 | 30 | 1008.1 |
| 20260904225529 | 100 | 173 | 2.6 | 7.8 | 0.00 | 0.00 | 0.00 | 30 | 1008.1 |
| 20260904225025 | 101 | 274 | 2.6 | 7.0 | 0.00 | 0.00 | 0.00 | 29 | 1008.2 |
| 20260904224604 | 101 | 248 | 0.9 | 6.1 | 0.00 | 0.00 | 0.00 | 29 | 1008.3 |
| 20260904224028 | 101 | 306 | 0.9 | 6.1 | 0.00 | 0.00 | 0.00 | 28 | 1008.4 |
| 20260904223526 | 101 | 0 | 0.0 | 8.7 | 0.00 | 0.00 | 0.00 | 29 | 1008.5 |
| 20260904223047 | 100 | 250 | 3.5 | 9.6 | 0.00 | 0.00 | 0.00 | 30 | 1008.6 |
| 20260904222524 | 100 | 208 | 4.3 | 9.6 | 0.00 | 0.00 | 0.00 | 30 | 1008.5 |
| 20260904222025 | 101 | 190 | 1.7 | 8.7 | 0.00 | 0.00 | 0.00 | 31 | 1008.5 |
| 20260904221546 | 102 | 109 | 4.3 | 8.7 | 0.00 | 0.00 | 0.00 | 31 | 1008.6 |
| 20260904221023 | 102 | 0 | 0.9 | 5.2 | 0.00 | 0.00 | 0.00 | 30 | 1008.6 |
| 20260904220524 | 101 | 0 | 0.0 | 8.7 | 0.00 | 0.00 | 0.00 | 30 | 1008.7 |
| 20260904220054 | 102 | 147 | 2.6 | 8.7 | 0.00 | 0.00 | 0.00 | 30 | 1008.7 |
| 20260904215528 | 101 | 207 | 2.6 | 12.2 | 0.00 | 0.00 | 0.00 | 30 | 1008.8 |
| 20260904215027 | 101 | 171 | 4.3 | 12.2 | 0.00 | 0.00 | 0.00 | 30 | 1008.9 |